{"data":{"norad_id":66884,"epoch":"2026-05-25T00:00:02.000160Z","epoch_age_seconds":75785,"freshness":"FRESH","line1":"1 66884U 25283G   26145.00002315  .00013008  00000+0  39572-3 0  9991","line2":"2 66884  53.1597  29.7742 0000801  95.6776  18.0300 15.34378020  5789","mean_motion":15.3437802,"eccentricity":8.01e-5,"inclination_deg":53.1597,"raan_deg":29.7742,"arg_perigee_deg":95.6776,"mean_anomaly_deg":18.03,"bstar":0.00039572,"rev_number":578,"period_min":93.849102452602,"perigee_km":462.22061364288,"apogee_km":463.31652671522,"semimajor_km":6840.905570179,"source":"CELESTRAK","updated_at":"2026-05-25T13:38:21.379121Z"}}